Location: Juign�
(47.4000°N, 0.4833°W)
Time: 00:12:00
(UTC+02:00)

ISS - Visible Passes

Search period start: 24 August 2019 00:00
Search period end: 03 September 2019 00:00
Orbit: 410 x 421 km, 51.6° (Epoch: 24 August)

Date Brightness Start Highest point End Pass type
(mag) Time Alt. Az. Time Alt. Az. Time Alt. Az.
27 Aug -1.2 06:24:20 10° S 06:26:20 15° SE 06:28:22 10° E visible
29 Aug -2.5 06:22:02 10° SSW 06:25:05 33° SE 06:28:09 10° ENE visible
30 Aug -1.9 05:35:12 18° S 05:36:23 22° SE 05:39:01 10° E visible
31 Aug -1.1 04:48:24 13° ESE 04:48:24 13° ESE 04:49:30 10° ESE visible
31 Aug -3.7 06:21:17 15° SW 06:23:57 74° SSE 06:27:18 10° ENE visible
01 Sep -3.2 05:34:25 39° S 05:35:08 48° SSE 05:38:23 10° ENE visible
02 Sep -1.8 04:47:30 24° ESE 04:47:30 24° ESE 04:49:21 10° E visible
02 Sep -3.5 06:20:23 16° W 06:22:56 61° NNW 06:26:16 10° ENE visible
